AVA9508 SKRG-SKCC

Flight info

Callsign AVA9508
Flight time 0h 40m
Altitude 23000
Route DIPRA1C DIPRA W26 EJA DCT ESNUT ESNUT2B
Aircraft A320/M-SDE3FGHIRWY/LB1

Departure

Time 2026-04-21 22:01
Airport Jose Maria Córdova International Airport (SKRG)

Arrival

Time 2026-04-21 22:41
Airport Camilo Daza International Airport (SKCC)
Time Latitude Longitude Altitude Speed Heading
2026-04-21 21:48 6.17096 -75.42677 6995 ft 0 kts 277°
2026-04-21 21:51 6.17096 -75.42675 7002 ft 1 kts 277°
2026-04-21 21:51 6.17094 -75.42660 7007 ft 2 kts 277°
2026-04-21 21:52 6.17093 -75.42651 7012 ft 2 kts 278°
2026-04-21 21:52 6.17095 -75.42635 7016 ft 2 kts 244°
2026-04-21 21:52 6.17104 -75.42623 7016 ft 2 kts 217°
2026-04-21 21:52 6.17117 -75.42617 7016 ft 2 kts 190°
2026-04-21 21:53 6.17124 -75.42616 7016 ft 1 kts 177°
2026-04-21 21:53 6.17131 -75.42616 7016 ft 0 kts 176°
2026-04-21 21:54 6.17123 -75.42616 7016 ft 2 kts 176°
2026-04-21 21:54 6.17090 -75.42612 7015 ft 7 kts 164°
2026-04-21 21:55 6.17033 -75.42581 7014 ft 10 kts 149°
2026-04-21 21:55 6.16961 -75.42539 7012 ft 12 kts 151°
2026-04-21 21:55 6.16874 -75.42495 7010 ft 15 kts 161°
2026-04-21 21:55 6.16763 -75.42484 7007 ft 17 kts 177°
2026-04-21 21:56 6.16636 -75.42482 7003 ft 19 kts 180°
2026-04-21 21:56 6.16498 -75.42483 7000 ft 20 kts 180°
2026-04-21 21:56 6.16348 -75.42483 6996 ft 22 kts 180°
2026-04-21 21:56 6.16188 -75.42481 6993 ft 22 kts 179°
2026-04-21 21:57 6.16030 -75.42481 6990 ft 21 kts 180°
2026-04-21 21:57 6.15881 -75.42480 6987 ft 21 kts 181°
2026-04-21 21:57 6.15732 -75.42479 6985 ft 21 kts 179°
2026-04-21 21:57 6.15581 -75.42475 6984 ft 21 kts 179°
2026-04-21 21:58 6.15430 -75.42473 6983 ft 21 kts 180°
2026-04-21 21:58 6.15279 -75.42475 6982 ft 21 kts 180°
2026-04-21 21:58 6.15128 -75.42474 6982 ft 21 kts 179°
2026-04-21 21:58 6.14982 -75.42473 6981 ft 20 kts 179°
2026-04-21 21:59 6.14856 -75.42480 6980 ft 14 kts 195°
2026-04-21 21:59 6.14819 -75.42413 6980 ft 9 kts 90°
2026-04-21 21:59 6.14819 -75.42407 6980 ft 0 kts 85°
2026-04-21 21:59 6.14819 -75.42406 6980 ft 0 kts 84°
2026-04-21 22:00 6.14835 -75.42384 6980 ft 5 kts 38°
2026-04-21 22:00 6.14874 -75.42355 6980 ft 8 kts 31°
2026-04-21 22:00 6.14937 -75.42323 6980 ft 10 kts 26°
2026-04-21 22:00 6.15034 -75.42304 6980 ft 26 kts
2026-04-21 22:01 6.15448 -75.42303 6983 ft 90 kts 359°
2026-04-21 22:01 6.16279 -75.42310 6994 ft 145 kts 360°
2026-04-21 22:01 6.17440 -75.42317 7090 ft 181 kts 359°
2026-04-21 22:01 6.18710 -75.42362 7562 ft 185 kts 359°
2026-04-21 22:02 6.20007 -75.42390 8103 ft 189 kts 358°
2026-04-21 22:02 6.21308 -75.42410 8681 ft 186 kts
2026-04-21 22:02 6.22513 -75.41961 8930 ft 191 kts 46°
2026-04-21 22:02 6.23037 -75.40743 9106 ft 200 kts 88°
2026-04-21 22:03 6.22676 -75.39368 9349 ft 209 kts 112°
2026-04-21 22:03 6.22316 -75.37938 9532 ft 219 kts 84°
2026-04-21 22:03 6.22879 -75.36507 9714 ft 232 kts 59°
2026-04-21 22:03 6.23768 -75.35081 9955 ft 248 kts 59°
2026-04-21 22:04 6.24677 -75.33522 10264 ft 263 kts 61°
2026-04-21 22:04 6.25571 -75.31873 10568 ft 280 kts 61°
2026-04-21 22:04 6.26481 -75.30070 10856 ft 296 kts 63°
2026-04-21 22:04 6.27419 -75.28178 11120 ft 311 kts 63°
2026-04-21 22:05 6.28397 -75.26198 11474 ft 320 kts 64°
2026-04-21 22:05 6.29386 -75.24173 11980 ft 322 kts 64°
2026-04-21 22:05 6.30338 -75.22125 12481 ft 324 kts 63°
2026-04-21 22:05 6.31283 -75.20092 12930 ft 327 kts 65°
2026-04-21 22:06 6.32231 -75.18008 13377 ft 330 kts 65°
2026-04-21 22:06 6.33187 -75.15896 13845 ft 333 kts 64°
2026-04-21 22:06 6.34168 -75.13768 14321 ft 335 kts 64°
2026-04-21 22:06 6.35145 -75.11650 14816 ft 338 kts 64°
2026-04-21 22:07 6.36139 -75.09499 15312 ft 341 kts 63°
2026-04-21 22:07 6.37128 -75.07347 15851 ft 343 kts 63°
2026-04-21 22:07 6.38156 -75.05145 16372 ft 345 kts 64°
2026-04-21 22:07 6.39167 -75.02969 16872 ft 347 kts 65°
2026-04-21 22:08 6.40178 -75.00759 17352 ft 349 kts 65°
2026-04-21 22:08 6.41196 -74.98533 17817 ft 351 kts 65°
2026-04-21 22:08 6.42207 -74.96323 18257 ft 354 kts 65°
2026-04-21 22:08 6.43249 -74.94049 18687 ft 356 kts 65°
2026-04-21 22:09 6.44281 -74.91800 19091 ft 357 kts 65°
2026-04-21 22:09 6.45323 -74.89535 19471 ft 359 kts 65°
2026-04-21 22:09 6.46370 -74.87262 19855 ft 361 kts 65°
2026-04-21 22:09 6.47433 -74.84950 20253 ft 361 kts 65°
2026-04-21 22:10 6.48489 -74.82657 20631 ft 363 kts 65°
2026-04-21 22:10 6.49548 -74.80357 21041 ft 365 kts 65°
2026-04-21 22:10 6.50616 -74.78035 21454 ft 366 kts 65°
2026-04-21 22:10 6.51674 -74.75736 21831 ft 368 kts 65°
2026-04-21 22:11 6.52762 -74.73369 22199 ft 371 kts 65°
2026-04-21 22:11 6.53838 -74.71030 22551 ft 373 kts 65°
2026-04-21 22:11 6.54934 -74.68645 22899 ft 375 kts 65°
2026-04-21 22:11 6.56024 -74.66270 23072 ft 377 kts 65°
2026-04-21 22:12 6.57128 -74.63866 23100 ft 376 kts 65°
2026-04-21 22:12 6.58217 -74.61499 23089 ft 375 kts 65°
2026-04-21 22:12 6.59323 -74.59094 23040 ft 375 kts 65°
2026-04-21 22:12 6.60412 -74.56723 22997 ft 374 kts 65°
2026-04-21 22:13 6.61543 -74.54369 22957 ft 374 kts 63°
2026-04-21 22:13 6.62802 -74.52062 22914 ft 374 kts 61°
2026-04-21 22:13 6.64079 -74.49784 22847 ft 374 kts 60°
2026-04-21 22:13 6.65355 -74.47514 22804 ft 374 kts 60°
2026-04-21 22:14 6.66627 -74.45249 22774 ft 374 kts 60°
2026-04-21 22:14 6.67921 -74.42945 22751 ft 374 kts 60°
2026-04-21 22:14 6.69186 -74.40691 22741 ft 374 kts 60°
2026-04-21 22:14 6.70476 -74.38392 22730 ft 374 kts 60°
2026-04-21 22:15 6.71746 -74.36128 22719 ft 374 kts 60°
2026-04-21 22:15 6.73026 -74.33845 22710 ft 374 kts 61°
2026-04-21 22:15 6.74310 -74.31555 22703 ft 374 kts 61°
2026-04-21 22:15 6.75590 -74.29268 22695 ft 374 kts 60°
2026-04-21 22:16 6.76863 -74.27004 22686 ft 374 kts 60°
2026-04-21 22:16 6.78135 -74.24740 22672 ft 375 kts 60°
2026-04-21 22:16 6.79415 -74.22459 22665 ft 374 kts 60°
2026-04-21 22:16 6.80703 -74.20161 22655 ft 374 kts 60°
2026-04-21 22:17 6.81972 -74.17896 22646 ft 374 kts 60°
2026-04-21 22:17 6.83261 -74.15594 22637 ft 374 kts 60°
2026-04-21 22:17 6.84536 -74.13318 22629 ft 374 kts 60°
2026-04-21 22:17 6.85806 -74.11049 22625 ft 374 kts 60°
2026-04-21 22:18 6.87096 -74.08745 22699 ft 379 kts 60°
2026-04-21 22:18 6.88393 -74.06427 22875 ft 380 kts 60°
2026-04-21 22:18 6.89703 -74.04086 22916 ft 393 kts 60°
2026-04-21 22:18 6.91057 -74.01662 22922 ft 404 kts 57°
2026-04-21 22:19 6.92459 -73.99144 22946 ft 416 kts 61°
2026-04-21 22:19 6.93884 -73.96587 22930 ft 426 kts 60°
2026-04-21 22:19 6.95356 -73.93958 22910 ft 430 kts 60°
2026-04-21 22:19 6.96828 -73.91330 22896 ft 430 kts 60°
2026-04-21 22:20 6.98293 -73.88714 22886 ft 431 kts 61°
2026-04-21 22:20 6.99768 -73.86073 22877 ft 431 kts 61°
2026-04-21 22:20 7.01237 -73.83443 22874 ft 438 kts 61°
2026-04-21 22:20 7.02710 -73.80720 22883 ft 447 kts 63°
2026-04-21 22:21 7.04085 -73.77847 22899 ft 455 kts 65°
2026-04-21 22:21 7.05396 -73.74970 22921 ft 462 kts 65°
2026-04-21 22:21 7.06747 -73.71980 22946 ft 468 kts 65°
2026-04-21 22:21 7.08100 -73.68985 22962 ft 474 kts 65°
2026-04-21 22:22 7.09465 -73.65963 22973 ft 480 kts 65°
2026-04-21 22:22 7.10860 -73.62878 22981 ft 483 kts 65°
2026-04-21 22:22 7.12260 -73.59784 22987 ft 484 kts 65°
2026-04-21 22:22 7.13643 -73.56728 22992 ft 484 kts 65°
2026-04-21 22:23 7.15035 -73.53652 22996 ft 484 kts 65°
2026-04-21 22:23 7.16430 -73.50571 22998 ft 484 kts 65°
2026-04-21 22:23 7.17840 -73.47454 22999 ft 484 kts 65°
2026-04-21 22:23 7.19217 -73.44411 23002 ft 484 kts 65°
2026-04-21 22:24 7.20625 -73.41299 23007 ft 484 kts 65°
2026-04-21 22:24 7.22016 -73.38224 23012 ft 484 kts 65°
2026-04-21 22:24 7.23407 -73.35148 23011 ft 485 kts 65°
2026-04-21 22:24 7.24817 -73.32029 23003 ft 485 kts 65°
2026-04-21 22:25 7.26199 -73.28970 22991 ft 485 kts 65°
2026-04-21 22:25 7.27595 -73.25881 22976 ft 484 kts 66°
2026-04-21 22:25 7.29003 -73.22765 22965 ft 485 kts 65°
2026-04-21 22:25 7.30396 -73.19679 22973 ft 485 kts 65°
2026-04-21 22:26 7.31795 -73.16585 22987 ft 485 kts 65°
2026-04-21 22:26 7.33184 -73.13514 22993 ft 478 kts 66°
2026-04-21 22:26 7.34540 -73.10513 22738 ft 461 kts 65°
2026-04-21 22:26 7.35847 -73.07622 22299 ft 450 kts 66°
2026-04-21 22:27 7.37131 -73.04775 21850 ft 441 kts 65°
2026-04-21 22:27 7.38382 -73.02004 21427 ft 433 kts 65°
2026-04-21 22:27 7.39605 -72.99293 20988 ft 426 kts 65°
2026-04-21 22:27 7.40831 -72.96575 20498 ft 419 kts 65°
2026-04-21 22:28 7.42015 -72.93950 20020 ft 412 kts 65°
2026-04-21 22:28 7.43193 -72.91336 19535 ft 406 kts 65°
2026-04-21 22:28 7.44355 -72.88759 19020 ft 394 kts 65°
2026-04-21 22:28 7.45450 -72.86327 18289 ft 380 kts 65°
2026-04-21 22:29 7.46523 -72.83947 17619 ft 364 kts 65°
2026-04-21 22:29 7.47539 -72.81691 17276 ft 340 kts 65°
2026-04-21 22:29 7.48490 -72.79578 17232 ft 325 kts 65°
2026-04-21 22:29 7.49411 -72.77527 17109 ft 316 kts 65°
2026-04-21 22:30 7.50426 -72.75609 16960 ft 306 kts 49°
2026-04-21 22:30 7.52067 -72.74332 16624 ft 301 kts 21°
2026-04-21 22:30 7.54095 -72.73856 16090 ft 300 kts
2026-04-21 22:30 7.56167 -72.73607 15594 ft 299 kts
2026-04-21 22:31 7.58237 -72.73328 15122 ft 295 kts
2026-04-21 22:31 7.60259 -72.73000 14668 ft 288 kts
2026-04-21 22:31 7.62202 -72.72646 14244 ft 281 kts 10°
2026-04-21 22:31 7.64098 -72.72279 13833 ft 275 kts 10°
2026-04-21 22:32 7.65981 -72.71901 13434 ft 271 kts 11°
2026-04-21 22:32 7.67817 -72.71525 13045 ft 268 kts 10°
2026-04-21 22:32 7.69641 -72.71156 12633 ft 268 kts 11°
2026-04-21 22:32 7.71486 -72.70772 12208 ft 267 kts 12°
2026-04-21 22:33 7.73307 -72.70392 11824 ft 268 kts 10°
2026-04-21 22:33 7.75164 -72.70009 11404 ft 272 kts 12°
2026-04-21 22:33 7.77032 -72.69619 10985 ft 275 kts 12°
2026-04-21 22:33 7.78928 -72.69235 10545 ft 281 kts 11°
2026-04-21 22:34 7.80880 -72.68837 10132 ft 288 kts
2026-04-21 22:34 7.82865 -72.68432 9694 ft 294 kts 12°
2026-04-21 22:34 7.84875 -72.67992 9242 ft 299 kts 11°
2026-04-21 22:34 7.86924 -72.67553 8771 ft 298 kts 11°
2026-04-21 22:35 7.88977 -72.67139 8239 ft 302 kts 12°
2026-04-21 22:35 7.91028 -72.66716 7612 ft 298 kts 13°
2026-04-21 22:35 7.92999 -72.66318 7176 ft 281 kts 16°
2026-04-21 22:35 7.94863 -72.65933 6746 ft 268 kts 14°
2026-04-21 22:36 7.98356 -72.65188 5936 ft 245 kts 13°
2026-04-21 22:36 8.00002 -72.64853 5510 ft 238 kts 14°
2026-04-21 22:36 8.01582 -72.64388 5066 ft 232 kts 34°
2026-04-21 22:37 8.02568 -72.63229 4710 ft 216 kts 78°
2026-04-21 22:37 8.02519 -72.61803 4491 ft 203 kts 112°
2026-04-21 22:37 8.01993 -72.60475 4272 ft 204 kts 115°
2026-04-21 22:37 8.01510 -72.59139 4058 ft 203 kts 110°
2026-04-21 22:38 8.01112 -72.57761 3845 ft 202 kts 107°
2026-04-21 22:38 8.00806 -72.56416 3585 ft 195 kts 105°
2026-04-21 22:38 8.00530 -72.55080 3234 ft 193 kts 104°
2026-04-21 22:38 8.00277 -72.53785 2932 ft 185 kts 103°
2026-04-21 22:39 8.00038 -72.52560 2700 ft 168 kts 99°
2026-04-21 22:39 7.99790 -72.51461 2424 ft 151 kts 107°
2026-04-21 22:39 7.99294 -72.50599 2249 ft 142 kts 133°
2026-04-21 22:39 7.98498 -72.50018 2118 ft 141 kts 154°
2026-04-21 22:40 7.97572 -72.49658 2001 ft 140 kts 159°
2026-04-21 22:40 7.96620 -72.49509 1783 ft 139 kts 194°
2026-04-21 22:40 7.95731 -72.49875 1620 ft 137 kts 207°
2026-04-21 22:40 7.94883 -72.50300 1465 ft 134 kts 211°
2026-04-21 22:41 7.94060 -72.50732 1267 ft 132 kts 200°
2026-04-21 22:41 7.93216 -72.51015 1103 ft 123 kts 197°
2026-04-21 22:41 7.92533 -72.51224 1084 ft 65 kts 197°
2026-04-21 22:41 7.92228 -72.51318 1089 ft 40 kts 197°
2026-04-21 22:42 7.91971 -72.51397 1093 ft 35 kts 197°
2026-04-21 22:42 7.91806 -72.51428 1097 ft 11 kts 226°
2026-04-21 22:42 7.91826 -72.51441 1096 ft 5 kts 14°
2026-04-21 22:42 7.91880 -72.51427 1095 ft 11 kts 15°
2026-04-21 22:43 7.91977 -72.51398 1093 ft 17 kts 17°
2026-04-21 22:43 7.92114 -72.51354 1091 ft 22 kts 19°
2026-04-21 22:43 7.92274 -72.51305 1088 ft 24 kts 17°
2026-04-21 22:43 7.92444 -72.51251 1085 ft 26 kts 18°
2026-04-21 22:44 7.92619 -72.51199 1083 ft 25 kts 18°
2026-04-21 22:44 7.92731 -72.51128 1082 ft 15 kts 56°
2026-04-21 22:44 7.92778 -72.51026 1080 ft 16 kts 79°
2026-04-21 22:44 7.92824 -72.50923 1078 ft 14 kts 58°
2026-04-21 22:45 7.92877 -72.50871 1077 ft 7 kts 100°
2026-04-21 22:45 7.92849 -72.50850 1077 ft 5 kts 201°
2026-04-21 22:45 7.92815 -72.50868 1078 ft 2 kts 206°
2026-04-21 22:45 7.92810 -72.50871 1078 ft 0 kts 206°